Wind_Speed
7 4 18 9 5 7 6 5 6 1 1 3 5 4 5 8 10 17 25 30 33 33 28 28 28 29 29 28 28 27 27 27 25 24 24 24 23 22 21 18 15 14 14 13
6 10 5 8 6 6 19 6 2 3 3 3 0 7 4 6 7 18 22 29 32 31 31 29 29 31 31 30 30 30 31 31 28 26 24 24 21 22 20 17 14 13 11 8
11 5 8 6 3 5 3 21 7 7 4 4 3 7 5 5 12 14 20 24 28 29 30 31 30 32 32 32 33 33 34 34 32 28 27 26 21 21 19 16 14 11 8 5
3 3 10 5 3 4 5 4 6 11 5 5 1 5 6 6 6 7 26 24 29 31 30 28 28 27 31 34 33 32 33 34 32 29 28 22 23 21 18 16 13 10 7 5
3 5 15 9 1 3 4 5 6 4 5 5 0 2 6 1 5 9 20 28 32 32 29 28 24 23 25 28 30 31 32 32 30 28 26 23 20 19 17 15 12 10 7 6
2 3 2 4 6 5 9 8 7 5 3 2 3 5 5 5 7 4 4 19 26 26 28 26 23 23 23 26 29 31 31 28 27 24 23 21 21 20 18 15 12 10 8 6
5 3 1 4 7 7 3 3 2 3 2 5 4 2 5 4 6 4 4 8 11 13 20 25 25 25 26 28 30 30 29 27 24 22 21 21 21 19 16 13 11 10 9 7
4 4 10 5 5 7 8 1 5 7 4 2 4 6 6 5 5 10 10 8 11 13 17 22 24 26 27 28 29 29 27 25 23 21 20 20 20 18 15 13 12 11 10 9
5 3 2 4 5 7 5 2 3 7 2 3 4 6 11 4 9 5 8 11 14 14 15 19 22 26 27 28 28 27 26 24 22 20 20 20 20 18 16 15 14 13 12 9
5 6 1 3 8 5 6 6 2 3 4 3 3 4 5 5 8 5 7 14 17 16 16 16 19 23 25 25 25 25 24 21 20 18 18 19 18 17 17 16 15 14 12 10
3 3 1 3 2 9 5 5 1 3 1 4 0 5 7 6 4 9 8 17 18 18 16 15 16 18 21 23 24 24 23 22 20 19 19 19 19 19 18 18 17 15 12 11
3 4 4 4 1 3 2 7 7 6 5 1 2 6 4 6 4 7 17 21 18 17 15 15 15 17 21 23 24 23 22 20 19 19 19 19 19 19 19 19 17 15 13 12
6 2 4 3 3 2 4 3 3 5 3 8 5 5 1 3 4 8 16 17 18 18 18 17 18 20 21 22 22 21 22 20 20 20 20 20 20 21 20 19 17 15 14 13
9 2 4 5 1 7 4 5 4 5 4 4 10 2 3 4 5 4 9 13 16 17 17 17 19 20 20 19 18 19 19 20 21 21 21 21 21 21 21 19 16 16 15 14
2 4 3 4 3 2 6 11 8 13 8 10 5 9 8 6 6 6 8 10 13 17 18 20 20 19 19 19 19 18 20 21 22 22 22 22 23 23 21 19 18 17 15 15
2 1 3 3 3 3 3 10 18 22 17 12 1 6 5 7 5 8 13 13 16 16 17 18 17 19 20 21 20 19 21 22 23 22 22 23 24 23 22 20 17 17 17 17
5 4 3 3 2 3 6 12 12 8 7 9 15 14 3 5 9 19 23 20 21 17 19 18 18 20 21 21 19 20 21 22 23 23 24 26 26 25 21 19 19 19 18 19
4 6 2 2 1 3 4 1 6 18 12 19 10 5 14 23 29 27 19 16 21 20 20 19 19 18 19 20 20 21 21 23 24 24 26 28 27 24 21 20 22 20 21 21
3 4 3 4 3 6 7 3 6 8 10 15 13 16 17 22 20 21 28 31 29 19 18 17 15 13 17 21 22 21 21 22 23 26 28 29 27 23 22 23 21 21 22 23
2 4 2 3 4 7 5 3 3 4 6 3 15 16 16 13 10 13 27 26 28 29 25 25 27 24 21 21 21 20 21 22 25 26 28 27 25 23 22 20 19 21 23 24
2 2 8 4 3 7 5 2 4 5 4 3 2 10 12 7 15 12 13 13 17 20 24 26 20 18 18 18 17 17 19 22 21 23 24 25 24 23 21 20 22 22 25 27
4 1 2 2 2 6 3 2 3 3 9 7 7 8 9 14 16 17 10 8 10 11 8 16 18 16 17 15 13 13 15 15 16 19 21 21 22 21 22 23 24 25 28 29
2 4 3 4 4 3 5 5 15 10 9 10 12 12 10 6 9 9 10 11 7 8 11 11 12 15 16 12 10 8 9 12 12 13 15 16 19 20 22 24 26 27 28 29
2 1 1 3 3 6 8 6 12 11 15 16 15 12 8 6 8 11 11 11 11 11 11 12 14 14 14 12 9 7 6 8 9 11 13 16 18 20 20 19 20 21 24 26
3 8 5 5 6 10 9 6 7 15 14 11 10 10 6 4 7 10 14 14 14 13 13 12 12 12 11 10 8 7 7 7 8 9 10 12 14 16 19 20 22 23 23 24
7 6 4 5 9 4 4 8 6 10 10 11 8 7 6 8 9 9 13 15 14 14 15 15 14 12 12 9 7 5 5 7 9 12 15 18 20 21 23 24 23 23 22 23
Wind_Direction
118 137 197 176 183 152 156 153 169 148 66 165 204 220 199 182 209 211 210 212 216 220 221 225 226 226 226 225 225 224 224 225 224 225 229 233 238 242 250 258 266 275 286 292
125 205 176 155 215 154 182 154 180 42 12 112 103 265 242 210 218 218 215 218 222 225 228 229 230 230 230 230 230 230 232 232 231 233 238 240 249 247 249 254 262 270 278 280
174 145 125 79 174 161 101 185 190 164 150 62 113 296 251 224 219 221 225 228 229 230 232 234 236 235 233 232 232 233 233 231 231 231 235 235 240 247 245 251 256 263 265 258
106 331 148 113 201 165 163 168 132 138 125 179 48 257 247 235 227 205 227 224 229 230 236 237 238 240 236 233 231 231 228 225 225 228 233 244 261 253 250 247 249 254 252 247
167 162 160 168 207 320 150 132 126 114 94 115 342 100 267 32 247 238 233 227 232 235 236 237 236 235 233 225 220 215 215 217 222 228 238 244 243 240 240 242 246 244 240 237
82 79 94 130 42 329 153 101 60 61 87 358 204 161 265 184 205 225 223 239 242 241 238 233 227 223 217 210 207 207 210 216 222 230 237 242 241 240 241 243 241 237 225 218
119 99 346 125 98 327 275 133 67 26 7 216 356 217 260 245 237 236 231 237 226 222 222 220 215 208 206 206 206 208 213 217 224 233 236 237 237 235 235 236 233 220 212 205
145 158 162 159 153 165 226 237 144 171 178 195 31 232 242 242 265 241 255 254 215 208 208 211 211 210 208 207 209 214 220 224 228 232 234 233 231 230 225 222 215 208 202 208
140 71 74 162 142 149 241 233 123 103 31 74 209 287 301 237 269 255 227 207 194 193 196 204 206 210 212 213 216 221 225 227 229 230 230 230 226 223 220 215 206 202 206 212
195 113 7 139 117 56 195 161 72 8 143 229 254 264 234 240 239 235 227 208 195 193 193 195 202 208 213 217 221 222 224 227 228 229 228 225 221 217 212 207 205 205 211 218
120 88 150 186 205 159 134 171 145 124 107 183 196 253 218 227 199 225 220 214 203 198 197 202 206 209 213 215 217 221 223 226 228 227 223 217 214 211 206 202 203 210 216 224
110 110 127 194 310 188 203 171 179 189 190 251 154 257 188 221 248 242 217 209 211 212 213 214 214 211 210 211 215 220 224 228 229 225 218 214 212 208 203 201 207 214 222 229
190 91 106 72 334 330 197 185 114 109 95 193 152 262 39 265 252 229 216 209 213 219 220 218 213 213 216 218 221 225 228 226 222 215 212 210 207 204 201 207 214 221 229 231
145 166 157 179 263 129 186 171 181 140 175 150 233 15 324 277 249 200 208 213 215 217 216 217 218 221 223 224 226 224 219 212 208 209 209 208 205 201 206 215 222 230 234 234
175 150 136 54 31 82 164 172 178 217 209 198 204 218 251 258 250 253 219 208 210 212 212 216 220 222 222 221 219 213 209 208 205 207 209 206 204 206 214 223 230 236 239 237
204 72 94 45 357 216 213 211 198 212 224 241 119 264 255 265 230 233 235 222 225 223 225 226 227 228 226 224 222 217 211 208 211 210 209 208 208 212 222 231 240 247 246 242
132 120 82 250 340 134 296 218 205 207 203 202 233 235 221 253 225 237 244 233 233 233 236 234 240 238 232 229 226 225 218 212 215 214 211 210 212 220 229 240 247 250 250 247
136 120 78 205 9 252 264 352 217 207 214 217 235 191 214 233 249 257 261 253 239 243 252 244 243 241 237 232 232 228 222 221 222 221 217 215 219 227 236 245 251 252 251 250
334 119 129 159 207 291 306 198 154 174 253 224 231 244 236 248 264 264 254 252 248 241 269 259 239 255 245 233 232 229 226 225 225 225 220 219 224 232 242 249 256 262 260 256
327 155 136 134 165 213 240 302 186 134 303 264 215 230 227 201 241 256 256 256 256 256 255 249 254 254 240 234 233 234 233 230 230 227 224 225 231 240 249 259 267 269 266 262
109 137 196 170 216 285 260 248 150 87 252 322 287 248 233 201 229 267 262 253 251 249 244 238 237 230 227 224 225 233 235 235 238 237 233 234 238 246 255 260 263 270 270 265
153 202 177 116 123 264 354 67 161 321 321 319 328 306 281 259 243 232 231 247 248 230 237 236 226 206 199 206 215 233 238 237 237 232 232 239 244 251 258 265 271 270 271 265
201 178 167 210 225 191 5 305 315 310 326 350 333 324 300 235 205 210 208 203 200 200 203 195 183 183 182 188 200 225 227 224 229 239 247 254 261 266 271 273 274 273 270 267
248 141 162 115 234 226 266 33 3 322 284 303 316 320 307 271 189 173 168 163 152 141 150 156 156 162 172 184 198 200 209 222 235 250 257 263 272 277 275 275 274 271 269 267
186 146 172 264 280 284 256 244 329 334 328 284 299 310 314 213 168 150 143 140 138 137 135 130 140 149 155 161 182 191 212 236 254 260 263 268 271 273 274 276 276 273 271 269
187 185 174 222 207 185 210 249 258 293 307 305 279 299 293 216 198 177 151 143 140 137 130 132 124 123 130 138 148 167 209 231 251 259 266 269 271 271 272 274 274 274 272 271
Height
1471 1481 1475 1481 1487 1489 1499 1503 1506 1508 1507 1509 1511 1509 1509 1509 1512 1513 1515 1518 1519 1521 1527 1531 1535 1539 1542 1546 1550 1553 1556 1558 1560 1562 1564 1566 1567 1569 1569 1570 1570 1571 1570 1569
1477 1475 1479 1482 1487 1489 1491 1502 1509 1509 1509 1507 1512 1510 1509 1508 1507 1509 1512 1514 1516 1520 1523 1527 1531 1535 1538 1542 1545 1549 1551 1554 1557 1560 1562 1563 1565 1566 1567 1568 1569 1569 1568 1568
1466 1472 1477 1483 1492 1491 1491 1493 1513 1507 1510 1512 1513 1515 1508 1503 1504 1506 1509 1511 1514 1516 1519 1523 1526 1529 1533 1536 1540 1544 1546 1550 1552 1556 1559 1559 1562 1563 1564 1566 1567 1567 1567 1567
1470 1474 1474 1485 1487 1485 1491 1491 1497 1506 1508 1518 1517 1525 1511 1502 1501 1503 1503 1505 1507 1510 1514 1517 1520 1523 1526 1530 1534 1539 1543 1547 1550 1553 1555 1557 1559 1560 1562 1563 1564 1565 1565 1565
1476 1474 1474 1481 1486 1486 1487 1491 1498 1505 1513 1514 1518 1523 1509 1503 1501 1499 1494 1497 1501 1504 1509 1512 1515 1518 1520 1524 1528 1533 1538 1543 1547 1550 1552 1554 1556 1558 1559 1560 1561 1562 1563 1564
1477 1476 1476 1480 1487 1490 1488 1493 1503 1510 1516 1534 1514 1520 1509 1504 1494 1489 1489 1492 1495 1498 1502 1505 1509 1513 1516 1520 1524 1529 1534 1539 1543 1546 1548 1551 1552 1554 1555 1557 1559 1560 1562 1563
1480 1481 1482 1483 1492 1496 1489 1491 1520 1531 1543 1525 1526 1522 1499 1490 1488 1489 1488 1488 1490 1493 1495 1499 1503 1507 1512 1516 1521 1526 1531 1534 1538 1541 1544 1546 1549 1551 1553 1555 1556 1558 1560 1562
1471 1486 1484 1481 1487 1491 1496 1489 1502 1518 1529 1518 1525 1515 1494 1485 1485 1485 1486 1486 1487 1489 1492 1496 1501 1505 1510 1514 1519 1524 1528 1531 1533 1537 1540 1542 1545 1547 1550 1552 1553 1556 1558 1559
1469 1478 1478 1481 1484 1488 1495 1489 1495 1517 1549 1532 1517 1506 1489 1483 1483 1481 1482 1482 1484 1487 1490 1494 1498 1503 1508 1512 1516 1520 1524 1527 1530 1532 1535 1538 1541 1544 1547 1549 1551 1553 1555 1556
1458 1474 1480 1480 1482 1490 1489 1490 1499 1505 1515 1525 1510 1507 1489 1479 1478 1481 1480 1479 1482 1485 1489 1492 1497 1501 1505 1509 1513 1517 1520 1524 1526 1529 1532 1535 1539 1542 1544 1546 1549 1551 1553 1554
1457 1461 1485 1480 1480 1484 1490 1496 1499 1499 1505 1500 1512 1491 1477 1473 1471 1475 1478 1478 1481 1484 1487 1491 1495 1499 1504 1507 1509 1513 1516 1519 1523 1526 1529 1531 1534 1537 1540 1543 1546 1549 1551 1552
1457 1467 1478 1477 1481 1482 1481 1483 1482 1481 1507 1514 1513 1492 1469 1470 1469 1471 1472 1475 1479 1483 1487 1489 1492 1496 1499 1502 1505 1509 1513 1516 1520 1524 1527 1530 1533 1536 1539 1542 1544 1546 1547 1549
1458 1469 1478 1483 1484 1479 1477 1479 1482 1485 1489 1495 1499 1467 1468 1469 1469 1470 1472 1472 1476 1481 1484 1486 1488 1491 1495 1499 1501 1504 1509 1513 1517 1520 1524 1527 1530 1534 1537 1540 1542 1543 1545 1546
1455 1464 1465 1467 1460 1469 1478 1479 1480 1477 1493 1487 1473 1470 1466 1468 1470 1469 1471 1473 1476 1478 1481 1482 1486 1489 1492 1495 1498 1500 1504 1508 1512 1516 1520 1524 1527 1531 1535 1537 1539 1540 1542 1543
1455 1465 1461 1467 1467 1466 1468 1471 1476 1473 1472 1473 1468 1475 1472 1468 1469 1471 1471 1471 1474 1476 1476 1478 1482 1486 1489 1491 1494 1496 1500 1504 1507 1511 1517 1521 1525 1528 1532 1534 1536 1538 1539 1540
1455 1466 1462 1478 1473 1471 1468 1470 1464 1465 1468 1469 1472 1473 1468 1465 1467 1468 1468 1469 1471 1473 1474 1477 1480 1483 1485 1489 1491 1494 1498 1502 1506 1509 1513 1519 1522 1525 1528 1532 1532 1536 1537 1538
1454 1465 1474 1486 1481 1475 1480 1464 1467 1466 1463 1463 1466 1456 1463 1464 1463 1462 1461 1464 1466 1469 1471 1474 1477 1479 1482 1485 1488 1491 1496 1499 1502 1505 1509 1515 1519 1521 1524 1528 1529 1531 1533 1534
1454 1462 1473 1487 1483 1481 1452 1452 1450 1451 1449 1451 1452 1453 1453 1455 1455 1456 1458 1461 1464 1466 1469 1471 1474 1476 1479 1483 1486 1489 1492 1495 1498 1503 1507 1511 1515 1518 1521 1523 1525 1526 1528 1529
1456 1458 1476 1475 1489 1462 1447 1450 1452 1453 1447 1443 1446 1446 1449 1451 1453 1449 1454 1456 1458 1462 1465 1468 1471 1474 1476 1479 1482 1485 1488 1490 1493 1497 1502 1507 1511 1514 1517 1517 1519 1522 1523 1523
1457 1459 1463 1485 1480 1481 1452 1447 1445 1445 1454 1435 1436 1437 1441 1448 1452 1439 1444 1449 1452 1455 1459 1461 1464 1467 1472 1474 1478 1483 1485 1487 1489 1492 1498 1504 1507 1511 1512 1514 1515 1516 1515 1517
1455 1457 1456 1467 1473 1464 1447 1445 1444 1460 1452 1438 1437 1436 1438 1441 1437 1439 1440 1442 1443 1447 1452 1455 1456 1458 1467 1472 1474 1478 1480 1482 1486 1491 1495 1500 1503 1506 1509 1510 1509 1509 1510 1512
1454 1458 1458 1466 1469 1464 1448 1449 1448 1452 1444 1442 1438 1438 1436 1434 1434 1435 1437 1438 1441 1440 1446 1452 1452 1454 1459 1466 1471 1475 1476 1479 1484 1488 1491 1495 1498 1501 1502 1502 1504 1503 1504 1502
1453 1449 1456 1461 1456 1449 1450 1450 1447 1448 1446 1443 1442 1442 1438 1433 1432 1435 1435 1437 1440 1441 1444 1447 1451 1452 1457 1463 1467 1472 1475 1478 1481 1485 1489 1492 1494 1494 1496 1494 1495 1494 1495 1494
1450 1449 1450 1453 1448 1446 1447 1445 1446 1445 1443 1443 1442 1441 1438 1436 1436 1436 1438 1440 1438 1440 1446 1446 1446 1451 1455 1461 1468 1470 1474 1477 1479 1483 1485 1486 1487 1489 1490 1487 1486 1484 1486 1485
1446 1448 1449 1450 1442 1441 1443 1444 1443 1444 1443 1441 1442 1440 1437 1437 1440 1438 1437 1439 1440 1444 1446 1448 1451 1454 1455 1457 1465 1467 1471 1475 1478 1481 1481 1482 1481 1480 1482 1481 1481 1481 1480 1479
1441 1441 1444 1441 1434 1435 1438 1440 1437 1441 1442 1441 1440 1438 1438 1439 1441 1442 1440 1441 1444 1446 1448 1450 1451 1457 1458 1460 1463 1468 1472 1471 1473 1475 1477 1478 1476 1474 1475 1475 1474 1474 1472 1473